www.pogodaiklimat.ru

Погода и климат >> Архив погоды >> Литва >> Klaip?da


АРХИВ ПОГОДЫ в Klaip?da

Время (UTC), дата Ветер
(напр.,м/с)
 
Видим.   Явления Облачность Т
(С)
Тd
(С)
f
(%)
Тe
(С)
Тes
(С)
Комфортность P
(гПа)
Po
(гПа)
Тmin
(С)
Tmax
(С)
R
(мм)
R24
(мм)
S
(см)
00 5.12 СЗ 4-8
{10}
20 км {ливн. осадки} 8/8 600 м
[Cu Sc]
+4.6 -0.2 71 +1 +1 по сезону 1015.4 1014.5
03 5.12 З 4-7
{9}
20 км 3/3 600 м
[Cu med, cong]
+4.7 -1.3 65 +1 +1 по сезону 1015.7 1014.8
06 5.12 З 4-8
{9}
20 км 3/3 840 м
[Cu med, cong]
+4.4 -0.4 71 0 0 по сезону 1015.5 1014.6 +1.5 0.2
09 5.12 З 4-6
{8}
20 км 10/4 600 м
[Cu med, cong Ci]
+4.8 +0.4 73 +1 +1 по сезону 1015.3 1014.4
12 5.12 З 6-10
{10}
20 км 10/10 600 м
[Cu Sc]
+5.5 0.0 68 +1 +1 по сезону 1013.4 1012.5
15 5.12 ЮЗ 5-12
{12}
17 км в посл. час ливневой дождь 10/10 400 м
[Cu Sc]
+5.8 +5.3 97 +1 +1 по сезону 1009.9 1009.0
18 5.12 З 5-9
{11}
20 км {ливн. осадки} 10/10 540 м
[Sc]
+6.5 +4.2 85 +2 +2 по сезону 1008.0 1007.1 +6.7 1
21 5.12 З 6-11
{12}
9000 м слабый ливневой дождь 10/10 300 м
[Cb cap]
+6.9 +6.2 95 +2 +2 тепло 1006.4 1005.5
00 6.12 СЗ 5-9
{14}
20 км {ливн. осадки} 10/10 600 м
[Cu Sc]
+6.4 +3.8 83 +2 +2 тепло 1008.0 1007.1
03 6.12 С 4-8
{11}
20 км 3/3 600 м
[Cu med, cong]
+4.5 +0.9 77 0 0 по сезону 1009.8 1008.9
06 6.12 СВ 1-2
{8}
20 км 10/0
[As trans]
+2.9 +0.5 84 +1 +1 по сезону 1010.4 1009.5 +2.8 0.4
09 6.12 Ю 1-2
{2}
17 км 10/6 1000 м
[Sc Ac As]
+3.3 +2.0 91 +2 +2 по сезону 1009.8 1008.9
12 6.12 З 4-6
{7}
20 км 10/4 1000 м
[Sc Ac As]
+5.1 +2.1 81 +1 +1 по сезону 1010.1 1009.2
15 6.12 З 4-6
{7}
20 км 10/4 1000 м
[Sc Ac As]
+5.1 +2.1 81 +1 +1 по сезону 1010.1 1009.2
18 6.12 ЮЗ 2-3
{4}
20 км в посл. час ливневой дождь 10/10 750 м
[Sc]
+4.6 +2.6 87 +2 +2 тепло 1010.8 1009.9 +5.6 0.0
21 6.12 ЮВ 2-4
{4}
4400 м слабая морось 10/10 60 м
[Frnb]
+2.8 +2.5 98 -1 -1 по сезону 1010.0 1009.1
00 7.12 ЮВ 4-6
{6}
1800 м слабый дождь {морось} 10/10 60 м
[Frnb Ns]
+3.1 +2.8 98 -2 -2 по сезону 1008.9 1008.0
03 7.12 З 6-8
{9}
4300 м слабый дождь 10/10 120 м
[Frnb Ns]
+7.1 +7.1 100 +2 +2 тепло 1007.3 1006.4
06 7.12 З 8-13
{15}
7000 м слабый дождь 10/10 210 м
[Frnb Ns]
+7.2 +6.8 97 +2 +2 тепло 1007.5 1006.6 +2.8 7
09 7.12 З 8-12
{15}
20 км 10/10 400 м
[Sc]
+7.6 +5.8 88 +3 +3 тепло 1007.6 1006.7
12 7.12 З 7-11
{14}
15 км 10/10 450 м
[Sc]
+7.4 +5.5 88 +3 +3 тепло 1007.0 1006.1
15 7.12 З 7-13
{13}
20 км 10/10 540 м
[Sc]
+6.9 +3.9 81 +2 +2 по сезону 1006.4 1005.5
18 7.12 ЮЗ 5-9
{14}
20 км 10/10 750 м
[Sc]
+6.3 +2.4 76 +2 +2 тепло 1004.8 1003.9 +7.8
21 7.12 Ю 7-12
{14}
20 км 10/10 600 м
[Sc]
+6.1 +3.0 80 +1 +1 по сезону 1002.3 1001.4
00 8.12 Ю 6-11
{12}
6000 м слабый дождь 10/10 270 м
[Frnb Ns]
+5.1 +2.9 86 0 0 по сезону 999.9 999.0
03 8.12 ЮЗ 6-11
{12}
7000 м слабый дождь 10/10 330 м
[Frnb Ns]
+5.5 +4.8 95 0 0 по сезону 997.7 996.8
06 8.12 ЮЗ 5-10
{13}
8000 м слабый дождь 10/10 330 м
[Frnb Ns]
+5.4 +4.7 95 +1 +1 по сезону 996.5 995.6 +4.5 5
09 8.12 ЮЗ 5-10
{12}
18 км слабый ливневой дождь 10/10 400 м
[Cb cap]
+5.8 +4.6 92 +1 +1 по сезону 996.7 995.8
12 8.12 ЮЗ 5-9
{11}
20 км {ливн. осадки, дождь} 8/8 480 м
[Cu Sc]
+6.5 +4.2 85 +2 +2 по сезону 997.0 996.1
15 8.12 ЮЗ 5-10
{12}
20 км {ливн. осадки} 8/8 720 м
[Cu Sc]
+5.7 +2.5 80 +1 +1 по сезону 997.9 997.0
18 8.12 ЮЗ 4-10
{16}
20 км в посл. час ливневой дождь 8/8 700 м
[Cu Sc]
+4.9 +2.7 86 +1 +1 по сезону 998.3 997.4 +6.8 2
21 8.12 ЮЗ 6-12
{16}
20 км в посл. час ливневой дождь 8/8 800 м
[Cu Sc]
+4.8 +2.1 83 -0 -0 по сезону 998.7 997.8
00 9.12 ЮЗ 6-12
{12}
20 км слабый ливневой дождь 10/10 400 м
[Cb cap]
+4.3 +2.0 85 -1 -1 по сезону 999.0 998.1
03 9.12 ЮЗ 5-10
{13}
20 км в посл. час ливневой дождь 10/10 480 м
[Cu Sc]
+3.8 +1.5 85 -1 -1 по сезону 999.3 998.4
06 9.12 ЮЗ 9-14
{14}
19 км слабый ливневой дождь 10/10 960 м
[Cb cap]
+4.5 +0.9 77 -2 -2 по сезону 999.9 999.0 +3.3 2
09 9.12 ЮЗ 6-13
{14}
20 км в посл. час ливневой дождь 10/10 600 м
[Cu Sc]
+4.4 -1.0 68 -1 -1 по сезону 1001.1 1000.2
12 9.12 Ю 7-12
{13}
20 км в посл. час ливневой дождь 10/10 800 м
[Sc]
+3.6 -1.1 71 -2 -2 по сезону 1001.1 1000.2
15 9.12 Ю 7-11
{14}
20 км 10/10 870 м
[Sc]
+3.1 -2.7 66 -3 -3 по сезону 1001.1 1000.2
18 9.12 Ю 7-11
{14}
20 км 10/10 900 м
[Sc]
+2.9 -1.9 71 -3 -3 по сезону 1000.9 1000.0 +4.8 0.6
21 9.12 Ю 4-9
{13}
20 км 10/10 570 м
[Sc]
+1.5 -2.3 76 -3 -3 по сезону 1000.3 999.4
00 10.12 Ю 3-8
{12}
19 км слабый ливневой дождь 10/10 400 м
[Cb cap]
+1.4 -1.5 81 -3 -3 по сезону 999.2 998.3
03 10.12 ЮВ 3-6
{10}
11 км в посл. час снег {дождь} 10/10 150 м
[Frnb Ns]
+0.9 +0.4 96 -4 -4 по сезону 998.3 997.4
06 10.12 ЮЗ 5-10
{11}
20 км слабый ливневой дождь {снег} 10/10 700 м
[Cb cap]
+3.3 +0.1 80 -2 -2 по сезону 998.3 997.4 +0.5 6
09 10.12 ЮЗ 6-11
{12}
19 км слабый ливневой дождь 9/9 600 м
[Cb cap]
+3.9 -1.0 70 -1 -1 по сезону 998.7 997.8
12 10.12 Ю 6-13
{14}
19 км слабый ливневой дождь 9/8 570 м
[Cb cap Ac trans]
+2.7 +0.6 86 -3 -3 по сезону 997.8 996.9
15 10.12 Ю 8-13
{14}
20 км слабый ливневой снег 10/10 900 м
[Cb cap]
+2.8 -0.8 77 -4 -4 по сезону 997.1 996.2
18 10.12 ЮВ 4-8
{14}
20 км {ливн. осадки} 3/0
[Ac trans]
+1.0 -2.9 75 -4 -4 по сезону 996.6 995.7 +4.2 4
21 10.12 ЮВ 4-7
{11}
19 км {ливн. осадки} 6/4 1000 м
[Cu med, cong Ac trans]
+0.2 -2.8 80 -5 -5 по сезону 995.6 994.7
00 11.12 ЮВ 4-7
{9}
17 км {ливн. осадки} 9/0
[As op]
0.0 -2.4 84 -5 -5 по сезону 993.2 992.3
03 11.12 ЮВ 5-8
{10}
19 км 10/1 450 м
[Cu med, cong As trans]
-0.4 -3.2 81 -7 -7 прохладно 991.8 990.9
06 11.12 ЮВ 4-8
{9}
4500 м слабый снег 10/10 480 м
[Frnb Ns]
-0.8 -2.0 92 -7 -7 прохладно 991.6 990.7 -0.9 0.0
09 11.12 В 4-7
{9}
7000 м в посл. час снег 10/10 210 м
[St]
-0.2 -1.4 92 -6 -6 прохладно 992.2 991.3
12 11.12 ЮВ 4-8
{9}
15 км {снег} 10/10 240 м
[St]
+1.0 -0.4 90 -4 -4 по сезону 992.5 991.6
15 11.12 ЮВ 4-6
{9}
12 км {морось} 10/10 210 м
[St]
+1.6 +0.8 94 -4 -4 по сезону 993.7 992.8
18 11.12 ЮВ 5-8
{8}
15 км {морось} 10/10 630 м
[Sc]
+2.5 +1.2 91 -3 -3 по сезону 994.4 993.5 +2.6 0.3

 

Местоположение метеостанции Klaip?da (Литва): широта 55.73 долгота 21.07 высота над уровнем моря 7 м.

В архиве по умолчанию представлена погода в Klaip?da за последнюю неделю. Архивные данные за месяц целиком и за предыдущие месяцы, начиная с января 2011 года, Вы можете получить, выбрав интересующий диапазон дат из раскрывающегося списка и нажав кнопку "Ввод!".

Внимание! Время в таблицах - всемирное. Для получения местного времени необходимо прибавить поправку, которая в Klaip?da равна 2 ч.

Смотрите также архив погоды в соседних городах и на ближайших метеорологических станциях:

Погода в Nidoje (Литва) (46 км)
Погода в Laukuvos (Литва) (74 км)
Погода в Liep?ja (Латвия) (83 км)
Погода в Советске (Калининградская область, Россия) (90 км)
Погода в Пионерском (Калининградская область, Россия) (102 км)
Погода в Калининграде (Калининградская область, Россия) (118 км)
Погода в P?vilosta (Латвия) (128 км)
Погода в Черняховске (Калининградская область, Россия) (131 км)
Погода в Saldus (Латвия) (138 км)
Погода в Балтийске (Калининградская область, Россия) (142 км)

Пояснения к столбцам:

Ветер - указаны скорость ветра в м/с - средняя за 10 мин, порывы в срок и между сроками (в фигурных скобках) и направление, откуда дует ветер: С - северный, СВ - северо-восточный, В - восточный, ЮВ - юго-восточный, Ю - южный, ЮЗ - юго-западный, З - западный, СЗ - северо-западный.
Видимость - горизонтальная дальность видимости в метрах или километрах. При видимости от 1 до 10 км при отсутствии осадков обычно наблюдается дымка, при ухудшении видимости до 1 км и менее - туман. В сухую погоду видимость может ухудшаться дымом, пылью или мглою.
Явления - указаны атмосферные явления, наблюдавшиеся в срок или в последний час перед сроком; фигурными скобками обозначены явления, наблюдавшиеся между сроками (за 1-3 часа до срока); квадратными скобками обозначены град или гололедные отложения с указанием их диаметра в мм.
Облачность - указаны через наклонную черту общая и нижняя облачность в баллах и высота нижней границы облаков в метрах; квадратными скобками обозначены формы облаков: Ci - перистые, Cs - перисто-слоистые, Cc - перисто-кучевые, Ac - высококучевые, As - высокослоистые, Sc - слоисто-кучевые, Ns - слоисто-дождевые, Cu - кучевые, Cb - кучево-дождевые. Подробнее классификацию облаков см. в Атласе облаков (PDF).
T - Температура воздуха - температура, измеренная на высоте 2 м над землей.
Td - Температура точки росы - температура, при понижении до которой содержащийся в воздухе водяной пар достигнет насыщения.
f - Относительная влажность воздуха - влажноcть воздуха, измеренная на высоте 2 м над землей.
Te - Эффективная температура - температура, которую ощущает одетый по сезону человек в тени. Характеристика душности погоды. При расчете учитывается влияние влажности воздуха и скорости ветра на теплоощущения человека.
Tes - Эффективная температура на солнце - температура, которую ощущает человек, с поправкой на солнечный нагрев. Характеристика знойности погоды. Зависит от высоты солнца над горизонтом, облачности и скорости ветра. Ночью, в пасмурную погоду, а также при ветре 12 м/с и более поправка равна нулю.
P - Атмосферное давление - приведенное к уровню моря атмосферное давление.
Po - Атмосферное давление - измеренное на уровне метеостанции атмосферное давление.
Tmin - Минимальная температура - минимум температуры воздуха на высоте 2 м над землей.
Tmax - Максимальная температура - максимум температуры воздуха на высоте 2 м над землей.
R - Количество осадков - Количество выпавших осадков за период времени, мм. При наведении курсора мыши на число - период времени, за который выпало указанное количество осадков.
R24 - Количество осадков - Количество выпавших осадков за 24 часа, мм.
S - Снежный покров - Высота снежного покрова, см. При наведении курсора мыши на число - состояние снежного покрова и степень покрытия местности в баллах.